Luverne, MN

7:46 AM CDT on October 22, 2017 (GMT -0500)
Luverne

Weather History for KLYV - August, 2013

Change the Weather History Date:

Saturday, August 24, 2013

  Actual Average (KPQN) Record (KPQN)
Temperature  
Mean Temperature 78 °F -  
Max Temperature 87 °F 77 °F 96 °F (2003)
Min Temperature 69 °F 57 °F 44 °F (2015)
Cooling Degree Days 13    
Growing Degree Days 28 (Base 50)    
Moisture  
Dew Point 70 °F    
Average Humidity 77    
Maximum Humidity 94    
Minimum Humidity 58    
Precipitation  
Precipitation 0.19 in - - ()
Sea Level Pressure  
Sea Level Pressure 29.99 in    
Wind  
Wind Speed 11 mph (South)    
Max Wind Speed 21 mph    
Max Gust Speed 30 mph    
Visibility 9 miles    
Events Rain , Thunderstorm    
Averages and records for this station are not official NWS values.
T = Trace of Precipitation, MM = Missing Value Source: NWS Daily Summary

Daily Weather History Graph

Daily Weather History Graph

Search for Another Location

Airport or City:

Trip Planner

Search our weather history database for the weather conditions in past years. The results will help you decide how hot, cold, wet, or windy it might be!

Date:

Astronomy

Aug. 24, 2013 Rise Set
Actual Time 6:39 AM CDT 8:13 PM CDT
Civil Twilight 6:09 AM CDT 8:43 PM CDT
Nautical Twilight 5:33 AM CDT 9:19 PM CDT
Astronomical Twilight 4:54 AM CDT 9:58 PM CDT
Moon 9:58 PM CDT (8/24) 10:50 AM CDT (8/24)
Length of Visible Light 14h 33m
Length of Day
13h 33m
Waning Gibbous, 84% of the Moon is Illuminated
Aug 24
Waning Gibbous
Aug 28
Last Quarter
Sep 5
New
Sep 12
First Quarter
Sep 19
Full

Hourly Weather History & Observations

Time (CDT) Temp. Heat Index Dew Point Humidity Pressure Visibility Wind Dir Wind Speed Gust Speed Precip Events Conditions
12:13 AM 71.6 °F - 68.0 °F 88% 30.02 in 7.0 mi SSE 5.8 mph - N/A   Clear
12:33 AM 71.6 °F - 68.0 °F 88% 30.02 in 7.0 mi SSE 5.8 mph - N/A   Clear
12:53 AM 71.6 °F - 68.0 °F 88% 30.01 in 7.0 mi SSE 5.8 mph - N/A   Clear
1:13 AM 71.6 °F - 68.0 °F 88% 30.01 in 7.0 mi SSE 6.9 mph - N/A   Clear
1:33 AM 71.6 °F - 68.0 °F 88% 30.01 in 7.0 mi SSE 8.1 mph - N/A   Clear
1:53 AM 73.4 °F - 68.0 °F 83% 30.01 in 7.0 mi South 6.9 mph - N/A   Clear
2:13 AM 73.4 °F - 68.0 °F 83% 30.01 in 7.0 mi SSE 10.4 mph - N/A   Clear
2:33 AM 73.4 °F - 68.0 °F 83% 30.00 in 7.0 mi SSE 9.2 mph - N/A   Clear
2:53 AM 73.4 °F - 68.0 °F 83% 30.00 in 7.0 mi South 10.4 mph - N/A   Clear
3:13 AM 73.4 °F - 68.0 °F 83% 30.00 in 7.0 mi SSE 8.1 mph - N/A   Clear
3:33 AM 73.4 °F - 68.0 °F 83% 30.01 in 7.0 mi South 8.1 mph - N/A   Clear
3:53 AM 71.6 °F - 68.0 °F 88% 30.01 in 7.0 mi SSE 8.1 mph - N/A   Scattered Clouds
4:13 AM 71.6 °F - 68.0 °F 88% 30.02 in 7.0 mi South 8.1 mph - N/A Thunderstorm Drizzle
4:33 AM 71.6 °F - 68.0 °F 88% 30.03 in 5.0 mi SSW 11.5 mph 19.6 mph 0.03 in Rain , Thunderstorm Light Thunderstorms and Rain
4:53 AM 69.8 °F - 66.2 °F 88% 30.02 in 1.8 mi South 13.8 mph 20.7 mph 0.17 in Rain , Thunderstorm Thunderstorms and Rain
5:13 AM 69.8 °F - 68.0 °F 94% 30.03 in 7.0 mi South 5.8 mph - N/A Rain , Thunderstorm Light Thunderstorms and Rain
5:33 AM 71.6 °F - 68.0 °F 88% 30.03 in 5.0 mi SSE 9.2 mph - N/A Thunderstorm Mostly Cloudy
5:53 AM 71.6 °F - 68.0 °F 88% 30.03 in 7.0 mi South 10.4 mph - N/A   Overcast
6:13 AM 69.8 °F - 68.0 °F 94% 30.03 in 7.0 mi SSE 10.4 mph 16.1 mph N/A   Overcast
6:33 AM 69.8 °F - 68.0 °F 94% 30.03 in 10.0 mi South 12.7 mph 20.7 mph N/A Thunderstorm Mostly Cloudy
6:53 AM 71.6 °F - 66.2 °F 83% 30.03 in 10.0 mi South 15.0 mph 20.7 mph N/A Rain Light Rain
7:13 AM 71.6 °F - 68.0 °F 88% 30.02 in 7.0 mi South 17.3 mph 24.2 mph 0.02 in Rain , Thunderstorm Light Thunderstorms and Rain
7:33 AM 69.8 °F - 66.2 °F 88% 30.02 in 10.0 mi South 13.8 mph 21.9 mph 0.02 in   Overcast
7:53 AM 71.6 °F - 66.2 °F 83% 30.02 in 10.0 mi South 17.3 mph 24.2 mph 0.02 in   Overcast
8:13 AM 71.6 °F - 66.2 °F 83% 30.03 in 10.0 mi South 15.0 mph 20.7 mph N/A Rain Light Rain
8:33 AM 71.6 °F - 66.2 °F 83% 30.03 in 10.0 mi South 17.3 mph 20.7 mph N/A Thunderstorm Scattered Clouds
8:53 AM 73.4 °F - 68.0 °F 83% 30.02 in 10.0 mi South 16.1 mph 25.3 mph N/A Rain Light Rain
9:13 AM 73.4 °F - 68.0 °F 83% 30.00 in 7.0 mi South 19.6 mph 29.9 mph N/A Rain , Thunderstorm Light Thunderstorms and Rain
9:33 AM 73.4 °F - 68.0 °F 83% 29.99 in 10.0 mi SSE 16.1 mph 25.3 mph N/A   Light Drizzle
9:53 AM 73.4 °F - 68.0 °F 83% 29.98 in 10.0 mi SSE 17.3 mph 26.5 mph N/A   Clear
10:13 AM 73.4 °F - 68.0 °F 83% 30.00 in 10.0 mi South 13.8 mph 21.9 mph N/A   Clear
10:33 AM 73.4 °F - 68.0 °F 83% 30.01 in 10.0 mi South 10.4 mph 18.4 mph N/A   Scattered Clouds
10:53 AM 75.2 °F - 68.0 °F 78% 29.99 in 10.0 mi South 16.1 mph 20.7 mph N/A   Scattered Clouds
11:13 AM 77.0 °F - 69.8 °F 78% 29.97 in 10.0 mi South 18.4 mph 25.3 mph N/A   Clear
11:33 AM 77.0 °F - 68.0 °F 74% 29.97 in 10.0 mi South 13.8 mph 24.2 mph N/A   Clear
11:53 AM 77.0 °F - 69.8 °F 78% 29.98 in 10.0 mi South 13.8 mph 21.9 mph N/A   Clear
12:13 PM 78.8 °F - 69.8 °F 74% 29.97 in 10.0 mi South 15.0 mph 24.2 mph N/A   Clear
12:33 PM 80.6 °F 83.9 °F 69.8 °F 70% 29.97 in 10.0 mi South 19.6 mph 26.5 mph N/A   Clear
12:53 PM 80.6 °F 83.9 °F 69.8 °F 70% 29.97 in 10.0 mi South 16.1 mph 25.3 mph N/A   Clear
1:13 PM 82.4 °F 86.3 °F 69.8 °F 66% 29.96 in 10.0 mi South 16.1 mph 21.9 mph N/A   Clear
1:33 PM 82.4 °F 86.3 °F 69.8 °F 66% 29.96 in 10.0 mi South 19.6 mph 26.5 mph N/A   Clear
1:53 PM 84.2 °F 89.6 °F 71.6 °F 66% 29.96 in 10.0 mi South 15.0 mph 24.2 mph N/A   Clear
2:13 PM 86.0 °F 91.8 °F 71.6 °F 62% 29.96 in 10.0 mi South 16.1 mph 24.2 mph N/A   Clear
2:33 PM 86.0 °F 91.8 °F 71.6 °F 62% 29.96 in 10.0 mi South 20.7 mph 24.2 mph N/A   Clear
2:53 PM 86.0 °F 91.8 °F 71.6 °F 62% 29.96 in 10.0 mi South 16.1 mph 24.2 mph N/A   Clear
3:13 PM 86.0 °F 91.8 °F 71.6 °F 62% 29.95 in 10.0 mi South 18.4 mph 26.5 mph N/A   Clear
3:33 PM 86.0 °F 91.8 °F 71.6 °F 62% 29.95 in 10.0 mi South 17.3 mph 26.5 mph N/A   Clear
3:53 PM 87.8 °F 93.8 °F 71.6 °F 58% 29.94 in 10.0 mi South 16.1 mph 24.2 mph N/A   Clear
4:13 PM 87.8 °F 93.8 °F 71.6 °F 58% 29.94 in 10.0 mi South 16.1 mph 26.5 mph N/A   Clear
4:33 PM 87.8 °F 95.6 °F 73.4 °F 62% 29.95 in 10.0 mi South 12.7 mph 20.7 mph N/A   Clear
4:53 PM 87.8 °F 95.6 °F 73.4 °F 62% 29.94 in 10.0 mi South 16.1 mph 21.9 mph N/A   Clear
5:13 PM 87.8 °F 95.6 °F 73.4 °F 62% 29.94 in 10.0 mi South 15.0 mph 24.2 mph N/A   Clear
5:33 PM 87.8 °F 95.6 °F 73.4 °F 62% 29.95 in 10.0 mi South 11.5 mph 18.4 mph N/A   Clear
5:53 PM 87.8 °F 95.6 °F 73.4 °F 62% 29.95 in 10.0 mi South 10.4 mph 23.0 mph N/A   Clear
6:13 PM 86.0 °F 93.4 °F 73.4 °F 66% 29.95 in 10.0 mi South 12.7 mph 18.4 mph N/A   Clear
6:33 PM 86.0 °F 93.4 °F 73.4 °F 66% 29.95 in 10.0 mi South 12.7 mph 17.3 mph N/A   Clear
6:53 PM 86.0 °F 93.4 °F 73.4 °F 66% 29.95 in 10.0 mi South 11.5 mph 16.1 mph N/A   Clear
7:13 PM 84.2 °F 90.9 °F 73.4 °F 70% 29.94 in 10.0 mi South 11.5 mph 17.3 mph N/A   Clear
7:33 PM 82.4 °F 88.2 °F 73.4 °F 74% 29.94 in 10.0 mi South 11.5 mph - N/A   Clear
7:53 PM 82.4 °F 88.2 °F 73.4 °F 74% 29.94 in 10.0 mi South 10.4 mph - N/A   Clear
8:13 PM 80.6 °F 84.6 °F 71.6 °F 74% 29.95 in 10.0 mi South 10.4 mph - N/A   Clear
8:33 PM 80.6 °F 85.4 °F 73.4 °F 79% 29.95 in 10.0 mi South 9.2 mph - N/A   Clear
8:53 PM 80.6 °F 85.4 °F 73.4 °F 79% 29.96 in 10.0 mi South 10.4 mph - N/A   Clear
9:13 PM 80.6 °F 84.6 °F 71.6 °F 74% 29.97 in 10.0 mi South 10.4 mph - N/A   Clear
9:33 PM 78.8 °F - 71.6 °F 78% 29.97 in 10.0 mi South 11.5 mph 17.3 mph N/A   Clear
9:53 PM 78.8 °F - 71.6 °F 78% 29.97 in 10.0 mi South 9.2 mph - N/A   Clear
10:13 PM 78.8 °F - 71.6 °F 78% 29.98 in 10.0 mi South 9.2 mph - N/A   Clear
10:33 PM 78.8 °F - 71.6 °F 78% 29.98 in 10.0 mi South 10.4 mph - N/A   Clear
10:53 PM 78.8 °F - 71.6 °F 78% 29.98 in 10.0 mi South 10.4 mph 16.1 mph N/A   Clear
11:13 PM 78.8 °F - 71.6 °F 78% 29.99 in 10.0 mi South 12.7 mph 18.4 mph N/A   Clear
11:33 PM 78.8 °F - 71.6 °F 78% 29.99 in 10.0 mi South 13.8 mph 18.4 mph N/A   Clear
11:53 PM 78.8 °F - 71.6 °F 78% 29.99 in 10.0 mi South 13.8 mph 19.6 mph N/A   Clear